| time (UTC) | temp F | wind direction | speed MPH | gust MPH | rain 1hr in | rain 24hr in | rain mn in | humidity % | barometer mb |
| 20260905215759 | 97 | 76 | 6.0 | 10.0 | 0.00 | 0.00 | 0.00 | 40 | 1011.9 |
| 20260905215255 | 98 | 65 | 1.0 | 2.0 | 0.00 | 0.00 | 0.00 | 39 | 1011.7 |
| 20260905214750 | 98 | 303 | 1.0 | 1.0 | 0.00 | 0.00 | 0.00 | 40 | 1012.1 |
| 20260905214246 | 96 | 286 | 1.0 | 1.0 | 0.00 | 0.00 | 0.00 | 40 | 1012.0 |
| 20260905213741 | 95 | 67 | 3.0 | 5.0 | 0.00 | 0.00 | 0.00 | 41 | 1011.9 |
| 20260905213238 | 96 | 131 | 2.0 | 3.0 | 0.00 | 0.00 | 0.00 | 41 | 1012.1 |
| 20260905212733 | 97 | 304 | 1.0 | 2.0 | 0.00 | 0.00 | 0.00 | 39 | 1012.0 |
| 20260905212232 | 98 | 294 | 3.0 | 5.0 | 0.00 | 0.00 | 0.00 | 40 | 1011.9 |
| 20260905211731 | 98 | 236 | 2.0 | 2.0 | 0.00 | 0.00 | 0.00 | 37 | 1011.9 |
| 20260905211227 | 96 | 284 | 2.0 | 3.0 | 0.00 | 0.00 | 0.00 | 40 | 1012.1 |
| 20260905210724 | 95 | 235 | 4.0 | 6.0 | 0.00 | 0.00 | 0.00 | 41 | 1012.1 |
| 20260905210223 | 96 | 183 | 6.0 | 8.0 | 0.00 | 0.00 | 0.00 | 40 | 1012.2 |
| 20260905205722 | 99 | 228 | 5.0 | 6.0 | 0.00 | 0.00 | 0.00 | 37 | 1012.4 |
| 20260905205216 | 96 | 300 | 1.0 | 1.0 | 0.00 | 0.00 | 0.00 | 41 | 1012.7 |
| 20260905204710 | 96 | 317 | 5.0 | 6.0 | 0.00 | 0.00 | 0.00 | 40 | 1012.6 |
| 20260905204206 | 95 | 251 | 2.0 | 2.0 | 0.00 | 0.00 | 0.00 | 42 | 1012.6 |
| 20260905203700 | 96 | 250 | 3.0 | 5.0 | 0.00 | 0.00 | 0.00 | 42 | 1012.7 |
| 20260905203155 | 98 | 139 | 6.0 | 7.0 | 0.00 | 0.00 | 0.00 | 40 | 1013.0 |
| 20260905202650 | 97 | 171 | 3.0 | 3.0 | 0.00 | 0.00 | 0.00 | 40 | 1012.9 |
| 20260905202146 | 97 | 320 | 2.0 | 3.0 | 0.00 | 0.00 | 0.00 | 41 | 1012.7 |
| 20260905201641 | 94 | 292 | 3.0 | 3.0 | 0.00 | 0.00 | 0.00 | 43 | 1013.0 |
| 20260905201136 | 95 | 175 | 5.0 | 6.0 | 0.00 | 0.00 | 0.00 | 44 | 1013.1 |
| 20260905200631 | 95 | 327 | 0.0 | 1.0 | 0.00 | 0.00 | 0.00 | 42 | 1013.1 |
| 20260905200126 | 97 | 40 | 2.0 | 2.0 | 0.00 | 0.00 | 0.00 | 41 | 1013.3 |
| 20260905195619 | 95 | 32 | 5.0 | 7.0 | 0.00 | 0.00 | 0.00 | 42 | 1013.4 |
| 20260905195114 | 96 | 61 | 4.0 | 6.0 | 0.00 | 0.00 | 0.00 | 42 | 1013.4 |
| 20260905194609 | 96 | 199 | 3.0 | 3.0 | 0.00 | 0.00 | 0.00 | 43 | 1013.6 |
| 20260905194108 | 97 | 183 | 5.0 | 7.0 | 0.00 | 0.00 | 0.00 | 43 | 1013.8 |
| 20260905193603 | 95 | 251 | 8.0 | 10.0 | 0.00 | 0.00 | 0.00 | 44 | 1013.6 |
| 20260905193058 | 93 | 205 | 6.0 | 7.0 | 0.00 | 0.00 | 0.00 | 46 | 1013.9 |
| 20260905192554 | 94 | 273 | 3.0 | 3.0 | 0.00 | 0.00 | 0.00 | 46 | 1014.2 |
| 20260905192050 | 94 | 195 | 10.0 | 10.0 | 0.00 | 0.00 | 0.00 | 46 | 1014.1 |
| 20260905191548 | 93 | 321 | 3.0 | 3.0 | 0.00 | 0.00 | 0.00 | 47 | 1014.1 |
| 20260905191047 | 95 | 228 | 5.0 | 6.0 | 0.00 | 0.00 | 0.00 | 47 | 1014.0 |
| 20260905190546 | 95 | 28 | 3.0 | 5.0 | 0.00 | 0.00 | 0.00 | 45 | 1014.4 |
| 20260905190045 | 94 | 74 | 1.0 | 5.0 | 0.00 | 0.00 | 0.00 | 47 | 1014.2 |
| 20260905185544 | 95 | 93 | 2.0 | 3.0 | 0.00 | 0.00 | 0.00 | 47 | 1014.5 |
| 20260905185038 | 95 | 72 | 2.0 | 2.0 | 0.00 | 0.00 | 0.00 | 47 | 1014.5 |
| 20260905184533 | 93 | 60 | 1.0 | 2.0 | 0.00 | 0.00 | 0.00 | 49 | 1014.6 |
| 20260905184031 | 93 | 68 | 3.0 | 5.0 | 0.00 | 0.00 | 0.00 | 49 | 1014.9 |
| 20260905183526 | 92 | 71 | 3.0 | 3.0 | 0.00 | 0.00 | 0.00 | 49 | 1014.5 |
| 20260905183021 | 92 | 173 | 8.0 | 9.0 | 0.00 | 0.00 | 0.00 | 51 | 1014.7 |
| 20260905182521 | 93 | 313 | 0.0 | 0.0 | 0.00 | 0.00 | 0.00 | 50 | 1014.7 |
| 20260905182015 | 93 | 198 | 8.0 | 10.0 | 0.00 | 0.00 | 0.00 | 48 | 1014.9 |
| 20260905181510 | 92 | 322 | 1.0 | 1.0 | 0.00 | 0.00 | 0.00 | 49 | 1014.9 |
| 20260905181009 | 92 | 115 | 5.0 | 6.0 | 0.00 | 0.00 | 0.00 | 49 | 1015.1 |
| 20260905180504 | 91 | 212 | 3.0 | 3.0 | 0.00 | 0.00 | 0.00 | 53 | 1015.1 |
| 20260905175959 | 92 | 291 | 2.0 | 3.0 | 0.00 | 0.00 | 0.00 | 52 | 1015.1 |
| 20260905175458 | 91 | 233 | 6.0 | 7.0 | 0.00 | 0.00 | 0.00 | 54 | 1015.5 |
| 20260905174954 | 91 | 206 | 4.0 | 5.0 | 0.00 | 0.00 | 0.00 | 55 | 1015.5 |
| 20260905174449 | 91 | 305 | 1.0 | 1.0 | 0.00 | 0.00 | 0.00 | 55 | 1015.5 |
| 20260905173945 | 90 | 189 | 4.0 | 5.0 | 0.00 | 0.00 | 0.00 | 58 | 1015.8 |
| 20260905173441 | 91 | 109 | 4.0 | 6.0 | 0.00 | 0.00 | 0.00 | 55 | 1015.8 |
| 20260905172936 | 92 | 210 | 4.0 | 5.0 | 0.00 | 0.00 | 0.00 | 52 | 1015.6 |
| 20260905172434 | 90 | 256 | 3.0 | 3.0 | 0.00 | 0.00 | 0.00 | 55 | 1015.8 |
| 20260905171931 | 88 | 324 | 1.0 | 1.0 | 0.00 | 0.00 | 0.00 | 60 | 1015.9 |
| 20260905171427 | 89 | 313 | 1.0 | 1.0 | 0.00 | 0.00 | 0.00 | 61 | 1015.9 |
| 20260905170923 | 89 | 226 | 4.0 | 5.0 | 0.00 | 0.00 | 0.00 | 61 | 1015.9 |
| 20260905170419 | 88 | 237 | 4.0 | 6.0 | 0.00 | 0.00 | 0.00 | 62 | 1015.9 |
| 20260905165918 | 89 | 136 | 4.0 | 6.0 | 0.00 | 0.00 | 0.00 | 61 | 1015.9 |
| 20260905165413 | 89 | 310 | 3.0 | 6.0 | 0.00 | 0.00 | 0.00 | 62 | 1016.1 |
| 20260905164908 | 88 | 217 | 4.0 | 5.0 | 0.00 | 0.00 | 0.00 | 62 | 1016.2 |
| 20260905164403 | 88 | 218 | 7.0 | 8.0 | 0.00 | 0.00 | 0.00 | 64 | 1016.2 |
| 20260905163857 | 87 | 302 | 3.0 | 5.0 | 0.00 | 0.00 | 0.00 | 65 | 1016.3 |
| 20260905163349 | 86 | 223 | 8.0 | 9.0 | 0.00 | 0.00 | 0.00 | 67 | 1016.3 |
| 20260905162845 | 87 | 280 | 4.0 | 7.0 | 0.00 | 0.00 | 0.00 | 67 | 1016.2 |
| 20260905162344 | 86 | 259 | 4.0 | 6.0 | 0.00 | 0.00 | 0.00 | 69 | 1016.2 |
| 20260905161839 | 86 | 280 | 3.0 | 3.0 | 0.00 | 0.00 | 0.00 | 69 | 1016.2 |
| 20260905161338 | 87 | 250 | 5.0 | 8.0 | 0.00 | 0.00 | 0.00 | 68 | 1016.1 |
| 20260905160837 | 86 | 252 | 4.0 | 7.0 | 0.00 | 0.00 | 0.00 | 68 | 1016.2 |
| 20260905160331 | 85 | 263 | 3.0 | 3.0 | 0.00 | 0.00 | 0.00 | 72 | 1016.1 |
| 20260905155826 | 84 | 248 | 5.0 | 6.0 | 0.00 | 0.00 | 0.00 | 72 | 1016.3 |
| 20260905155325 | 85 | 216 | 5.0 | 6.0 | 0.00 | 0.00 | 0.00 | 71 | 1016.2 |
| 20260905154825 | 85 | 242 | 6.0 | 8.0 | 0.00 | 0.00 | 0.00 | 71 | 1016.2 |
| 20260905154320 | 84 | 250 | 7.0 | 8.0 | 0.00 | 0.00 | 0.00 | 73 | 1016.1 |
| 20260905153816 | 83 | 319 | 2.0 | 5.0 | 0.00 | 0.00 | 0.00 | 75 | 1016.1 |
| 20260905153312 | 83 | 198 | 7.0 | 9.0 | 0.00 | 0.00 | 0.00 | 75 | 1016.2 |
| 20260905152812 | 84 | 200 | 4.0 | 5.0 | 0.00 | 0.00 | 0.00 | 75 | 1016.2 |
| 20260905152311 | 83 | 239 | 4.0 | 5.0 | 0.00 | 0.00 | 0.00 | 77 | 1016.1 |
| 20260905151806 | 83 | 219 | 7.0 | 8.0 | 0.00 | 0.00 | 0.00 | 78 | 1016.2 |
| 20260905151302 | 83 | 220 | 8.0 | 9.0 | 0.00 | 0.00 | 0.00 | 76 | 1016.2 |
| 20260905150801 | 84 | 241 | 5.0 | 6.0 | 0.00 | 0.00 | 0.00 | 76 | 1016.2 |
| 20260905150301 | 83 | 289 | 4.0 | 6.0 | 0.00 | 0.00 | 0.00 | 78 | 1016.3 |
| 20260905145758 | 83 | 209 | 5.0 | 6.0 | 0.00 | 0.00 | 0.00 | 78 | 1016.1 |
| 20260905145253 | 82 | 191 | 6.0 | 8.0 | 0.00 | 0.00 | 0.00 | 79 | 1016.3 |
| 20260905144752 | 82 | 237 | 5.0 | 6.0 | 0.00 | 0.00 | 0.00 | 79 | 1015.9 |
| 20260905144248 | 82 | 226 | 5.0 | 8.0 | 0.00 | 0.00 | 0.00 | 81 | 1016.1 |
| 20260905143747 | 81 | 240 | 3.0 | 5.0 | 0.00 | 0.00 | 0.00 | 83 | 1016.3 |
| 20260905143246 | 80 | 220 | 4.0 | 5.0 | 0.00 | 0.00 | 0.00 | 85 | 1015.9 |
| 20260905142745 | 81 | 226 | 5.0 | 6.0 | 0.00 | 0.00 | 0.00 | 85 | 1016.2 |
| 20260905142239 | 80 | 226 | 4.0 | 5.0 | 0.00 | 0.00 | 0.00 | 86 | 1015.8 |
| 20260905141736 | 80 | 254 | 3.0 | 5.0 | 0.00 | 0.00 | 0.00 | 86 | 1015.8 |
| 20260905141232 | 80 | 230 | 5.0 | 6.0 | 0.00 | 0.00 | 0.00 | 87 | 1015.9 |
| 20260905140727 | 80 | 242 | 3.0 | 5.0 | 0.00 | 0.00 | 0.00 | 88 | 1015.9 |
| 20260905140227 | 79 | 263 | 1.0 | 2.0 | 0.00 | 0.00 | 0.00 | 90 | 1015.9 |
| 20260905135720 | 79 | 212 | 4.0 | 5.0 | 0.00 | 0.00 | 0.00 | 91 | 1015.8 |
| 20260905135216 | 78 | 193 | 4.0 | 5.0 | 0.00 | 0.00 | 0.00 | 91 | 1015.4 |
| 20260905134715 | 78 | 231 | 2.0 | 3.0 | 0.00 | 0.00 | 0.00 | 91 | 1015.7 |
| 20260905134210 | 78 | 269 | 2.0 | 2.0 | 0.00 | 0.00 | 0.00 | 92 | 1015.8 |
| 20260905133705 | 78 | 224 | 4.0 | 5.0 | 0.00 | 0.00 | 0.00 | 92 | 1015.8 |
| 20260905133200 | 78 | 298 | 2.0 | 2.0 | 0.00 | 0.00 | 0.00 | 93 | 1015.8 |
| 20260905132658 | 77 | 210 | 4.0 | 6.0 | 0.00 | 0.00 | 0.00 | 93 | 1015.6 |
| 20260905132154 | 77 | 284 | 2.0 | 2.0 | 0.00 | 0.00 | 0.00 | 94 | 1015.7 |
| 20260905131643 | 77 | 224 | 2.0 | 2.0 | 0.00 | 0.00 | 0.00 | 94 | 1015.3 |
| 20260905131138 | 77 | 249 | 2.0 | 2.0 | 0.00 | 0.00 | 0.00 | 94 | 1015.4 |
| 20260905130633 | 76 | 244 | 3.0 | 3.0 | 0.00 | 0.00 | 0.00 | 94 | 1015.2 |
| 20260905130133 | 76 | 249 | 3.0 | 3.0 | 0.00 | 0.00 | 0.00 | 94 | 1015.2 |
| 20260905125627 | 76 | 249 | 3.0 | 3.0 | 0.00 | 0.00 | 0.00 | 94 | 1015.3 |
| 20260905125122 | 76 | 261 | 3.0 | 3.0 | 0.00 | 0.00 | 0.00 | 94 | 1015.0 |
| 20260905124613 | 76 | 199 | 4.0 | 5.0 | 0.00 | 0.00 | 0.00 | 94 | 1015.1 |
| 20260905124109 | 76 | 216 | 3.0 | 3.0 | 0.00 | 0.00 | 0.00 | 94 | 1015.1 |
| 20260905123603 | 76 | 251 | 2.0 | 2.0 | 0.00 | 0.00 | 0.00 | 94 | 1015.0 |
| 20260905123100 | 76 | 216 | 3.0 | 5.0 | 0.00 | 0.00 | 0.00 | 94 | 1015.0 |
| 20260905122554 | 75 | 260 | 2.0 | 2.0 | 0.00 | 0.00 | 0.00 | 94 | 1015.0 |
| 20260905122049 | 75 | 242 | 3.0 | 3.0 | 0.00 | 0.00 | 0.00 | 94 | 1014.8 |
| 20260905121544 | 75 | 222 | 3.0 | 3.0 | 0.00 | 0.00 | 0.00 | 94 | 1015.0 |
| 20260905121038 | 75 | 237 | 3.0 | 3.0 | 0.00 | 0.00 | 0.00 | 94 | 1014.8 |
| 20260905120538 | 76 | 253 | 3.0 | 3.0 | 0.00 | 0.00 | 0.00 | 94 | 1014.9 |
| 20260905120033 | 76 | 207 | 3.0 | 3.0 | 0.00 | 0.00 | 0.00 | 94 | 1014.8 |
| 20260905115532 | 76 | 265 | 2.0 | 2.0 | 0.00 | 0.00 | 0.00 | 94 | 1015.0 |
| 20260905115027 | 76 | 260 | 2.0 | 2.0 | 0.00 | 0.00 | 0.00 | 94 | 1014.6 |
| 20260905114526 | 76 | 212 | 3.0 | 3.0 | 0.00 | 0.00 | 0.00 | 94 | 1014.7 |
| 20260905114025 | 76 | 256 | 3.0 | 3.0 | 0.00 | 0.00 | 0.00 | 94 | 1014.8 |
| 20260905113521 | 76 | 270 | 2.0 | 2.0 | 0.00 | 0.00 | 0.00 | 94 | 1014.9 |
| 20260905113016 | 76 | 235 | 3.0 | 3.0 | 0.00 | 0.00 | 0.00 | 94 | 1014.6 |
| 20260905112511 | 76 | 248 | 3.0 | 3.0 | 0.00 | 0.00 | 0.00 | 94 | 1014.8 |
| 20260905112007 | 76 | 240 | 3.0 | 3.0 | 0.00 | 0.00 | 0.00 | 94 | 1014.4 |
| 20260905111502 | 76 | 267 | 3.0 | 3.0 | 0.00 | 0.00 | 0.00 | 93 | 1014.4 |
| 20260905111001 | 76 | 262 | 3.0 | 3.0 | 0.00 | 0.00 | 0.00 | 93 | 1014.3 |
| 20260905110455 | 76 | 232 | 3.0 | 3.0 | 0.00 | 0.00 | 0.00 | 93 | 1014.4 |
| 20260905105954 | 76 | 219 | 3.0 | 3.0 | 0.00 | 0.00 | 0.00 | 93 | 1014.5 |
| 20260905105449 | 76 | 238 | 4.0 | 5.0 | 0.00 | 0.00 | 0.00 | 93 | 1014.3 |
| 20260905104948 | 76 | 217 | 2.0 | 2.0 | 0.00 | 0.00 | 0.00 | 93 | 1014.4 |
| 20260905104444 | 76 | 263 | 0.0 | 0.0 | 0.00 | 0.00 | 0.00 | 93 | 1014.3 |
| 20260905103939 | 76 | 263 | 0.0 | 0.0 | 0.00 | 0.00 | 0.00 | 93 | 1014.3 |
| 20260905103435 | 76 | 287 | 0.0 | 0.0 | 0.00 | 0.00 | 0.00 | 93 | 1014.4 |
| 20260905102931 | 76 | 280 | 0.0 | 0.0 | 0.00 | 0.00 | 0.00 | 93 | 1014.4 |
| 20260905102427 | 76 | 249 | 0.0 | 0.0 | 0.00 | 0.00 | 0.00 | 93 | 1014.5 |
| 20260905101921 | 76 | 267 | 2.0 | 2.0 | 0.00 | 0.00 | 0.00 | 93 | 1014.6 |
| 20260905101420 | 76 | 225 | 3.0 | 3.0 | 0.00 | 0.00 | 0.00 | 93 | 1014.5 |
| 20260905100914 | 77 | 208 | 0.0 | 0.0 | 0.00 | 0.00 | 0.00 | 92 | 1014.5 |
| 20260905100405 | 77 | 278 | 0.0 | 0.0 | 0.00 | 0.00 | 0.00 | 92 | 1014.6 |
| 20260905095904 | 77 | 294 | 0.0 | 0.0 | 0.00 | 0.00 | 0.00 | 92 | 1014.6 |
| 20260905095358 | 77 | 297 | 1.0 | 1.0 | 0.00 | 0.00 | 0.00 | 92 | 1014.3 |
| 20260905094853 | 77 | 247 | 3.0 | 3.0 | 0.00 | 0.00 | 0.00 | 92 | 1014.4 |
| 20260905094349 | 77 | 241 | 4.0 | 5.0 | 0.00 | 0.00 | 0.00 | 92 | 1014.5 |
| 20260905093847 | 77 | 234 | 4.0 | 5.0 | 0.00 | 0.00 | 0.00 | 92 | 1014.4 |
| 20260905093343 | 77 | 216 | 2.0 | 3.0 | 0.00 | 0.00 | 0.00 | 91 | 1014.3 |
| 20260905092839 | 77 | 220 | 4.0 | 6.0 | 0.00 | 0.00 | 0.00 | 91 | 1014.3 |
| 20260905092339 | 77 | 234 | 4.0 | 6.0 | 0.00 | 0.00 | 0.00 | 91 | 1014.3 |
| 20260905091834 | 77 | 244 | 4.0 | 6.0 | 0.00 | 0.00 | 0.00 | 91 | 1014.3 |
| 20260905091334 | 77 | 270 | 5.0 | 6.0 | 0.00 | 0.00 | 0.00 | 91 | 1014.4 |
| 20260905090832 | 77 | 264 | 4.0 | 5.0 | 0.00 | 0.00 | 0.00 | 90 | 1014.5 |
| 20260905090329 | 77 | 220 | 4.0 | 6.0 | 0.00 | 0.00 | 0.00 | 90 | 1014.5 |
| 20260905085828 | 78 | 243 | 4.0 | 5.0 | 0.00 | 0.00 | 0.00 | 90 | 1014.6 |
| 20260905085322 | 78 | 232 | 3.0 | 3.0 | 0.00 | 0.00 | 0.00 | 90 | 1014.3 |
| 20260905084818 | 78 | 187 | 6.0 | 7.0 | 0.00 | 0.00 | 0.00 | 90 | 1014.5 |
| 20260905084317 | 78 | 222 | 7.0 | 8.0 | 0.00 | 0.00 | 0.00 | 90 | 1014.4 |
| 20260905083812 | 78 | 216 | 4.0 | 6.0 | 0.00 | 0.00 | 0.00 | 89 | 1014.5 |
| 20260905083308 | 78 | 253 | 5.0 | 7.0 | 0.00 | 0.00 | 0.00 | 89 | 1014.4 |
| 20260905082803 | 78 | 216 | 6.0 | 7.0 | 0.00 | 0.00 | 0.00 | 89 | 1014.4 |
| 20260905082259 | 78 | 203 | 6.0 | 7.0 | 0.00 | 0.00 | 0.00 | 89 | 1014.5 |
| 20260905081754 | 78 | 242 | 6.0 | 8.0 | 0.00 | 0.00 | 0.00 | 89 | 1014.6 |
| 20260905081249 | 78 | 220 | 6.0 | 7.0 | 0.00 | 0.00 | 0.00 | 88 | 1014.6 |
| 20260905080748 | 78 | 239 | 5.0 | 7.0 | 0.00 | 0.00 | 0.00 | 88 | 1014.7 |
| 20260905080243 | 78 | 205 | 6.0 | 8.0 | 0.00 | 0.00 | 0.00 | 88 | 1014.6 |
| 20260905075742 | 78 | 202 | 5.0 | 7.0 | 0.00 | 0.00 | 0.00 | 88 | 1014.7 |
| 20260905075241 | 78 | 222 | 7.0 | 8.0 | 0.00 | 0.00 | 0.00 | 88 | 1014.7 |
| 20260905074740 | 78 | 226 | 5.0 | 6.0 | 0.00 | 0.00 | 0.00 | 88 | 1014.6 |
| 20260905074236 | 78 | 207 | 6.0 | 8.0 | 0.00 | 0.00 | 0.00 | 87 | 1014.9 |
| 20260905073732 | 78 | 200 | 6.0 | 7.0 | 0.00 | 0.00 | 0.00 | 87 | 1014.9 |
| 20260905073227 | 79 | 198 | 6.0 | 7.0 | 0.00 | 0.00 | 0.00 | 87 | 1014.7 |
| 20260905072726 | 79 | 212 | 5.0 | 6.0 | 0.00 | 0.00 | 0.00 | 87 | 1015.0 |
| 20260905072222 | 79 | 214 | 4.0 | 5.0 | 0.00 | 0.00 | 0.00 | 87 | 1014.8 |
| 20260905071718 | 79 | 230 | 5.0 | 6.0 | 0.00 | 0.00 | 0.00 | 86 | 1014.7 |
| 20260905071214 | 79 | 197 | 6.0 | 7.0 | 0.00 | 0.00 | 0.00 | 86 | 1015.0 |
| 20260905070709 | 79 | 218 | 5.0 | 6.0 | 0.00 | 0.00 | 0.00 | 86 | 1015.1 |
| 20260905070204 | 79 | 225 | 4.0 | 5.0 | 0.00 | 0.00 | 0.00 | 86 | 1014.9 |
| 20260905065703 | 79 | 247 | 5.0 | 6.0 | 0.00 | 0.00 | 0.00 | 85 | 1015.0 |
| 20260905065158 | 79 | 198 | 7.0 | 9.0 | 0.00 | 0.00 | 0.00 | 85 | 1015.0 |
| 20260905064653 | 79 | 219 | 8.0 | 13.0 | 0.00 | 0.00 | 0.00 | 85 | 1014.9 |
| 20260905064149 | 80 | 207 | 5.0 | 6.0 | 0.00 | 0.00 | 0.00 | 84 | 1015.1 |
| 20260905063647 | 80 | 190 | 10.0 | 11.0 | 0.00 | 0.00 | 0.00 | 84 | 1015.1 |
| 20260905063143 | 80 | 197 | 8.0 | 9.0 | 0.00 | 0.00 | 0.00 | 84 | 1014.7 |
| 20260905062639 | 80 | 188 | 6.0 | 8.0 | 0.00 | 0.00 | 0.00 | 83 | 1015.0 |
| 20260905062138 | 80 | 197 | 8.0 | 9.0 | 0.00 | 0.00 | 0.00 | 83 | 1015.1 |
| 20260905061632 | 80 | 257 | 5.0 | 6.0 | 0.00 | 0.00 | 0.00 | 82 | 1015.0 |
| 20260905061127 | 80 | 215 | 4.0 | 5.0 | 0.00 | 0.00 | 0.00 | 82 | 1015.2 |
| 20260905060622 | 80 | 222 | 6.0 | 8.0 | 0.00 | 0.00 | 0.00 | 81 | 1015.2 |
| 20260905060119 | 80 | 203 | 5.0 | 5.0 | 0.00 | 0.00 | 0.00 | 81 | 1015.0 |
| 20260905055616 | 80 | 197 | 6.0 | 7.0 | 0.00 | 0.00 | 0.00 | 80 | 1015.1 |
| 20260905055106 | 80 | 177 | 6.0 | 7.0 | 0.00 | 0.00 | 0.00 | 80 | 1014.9 |
| 20260905054602 | 80 | 268 | 3.0 | 3.0 | 0.00 | 0.00 | 0.00 | 80 | 1015.0 |
| 20260905054057 | 80 | 174 | 3.0 | 5.0 | 0.00 | 0.00 | 0.00 | 80 | 1015.1 |
| 20260905053556 | 80 | 187 | 6.0 | 8.0 | 0.00 | 0.00 | 0.00 | 79 | 1015.2 |
| 20260905053052 | 81 | 235 | 6.0 | 7.0 | 0.00 | 0.00 | 0.00 | 79 | 1015.0 |
| 20260905052551 | 81 | 208 | 6.0 | 8.0 | 0.00 | 0.00 | 0.00 | 78 | 1015.2 |
| 20260905052046 | 81 | 205 | 3.0 | 3.0 | 0.00 | 0.00 | 0.00 | 78 | 1015.1 |
| 20260905051542 | 81 | 179 | 5.0 | 7.0 | 0.00 | 0.00 | 0.00 | 77 | 1015.1 |
| 20260905051038 | 81 | 210 | 6.0 | 7.0 | 0.00 | 0.00 | 0.00 | 77 | 1015.2 |
| 20260905050534 | 81 | 212 | 7.0 | 9.0 | 0.00 | 0.00 | 0.00 | 77 | 1015.1 |
| 20260905050031 | 81 | 305 | 4.0 | 6.0 | 0.00 | 0.00 | 0.00 | 77 | 1015.3 |
| 20260905045525 | 81 | 197 | 5.0 | 6.0 | 0.00 | 0.00 | 0.00 | 76 | 1015.1 |
| 20260905045020 | 82 | 190 | 5.0 | 7.0 | 0.00 | 0.00 | 0.00 | 76 | 1015.3 |
| 20260905044514 | 82 | 200 | 6.0 | 7.0 | 0.00 | 0.00 | 0.00 | 76 | 1015.3 |
| 20260905044009 | 82 | 202 | 8.0 | 9.0 | 0.00 | 0.00 | 0.00 | 75 | 1014.9 |
| 20260905043508 | 82 | 198 | 5.0 | 6.0 | 0.00 | 0.00 | 0.00 | 75 | 1015.2 |
| 20260905043003 | 82 | 183 | 6.0 | 7.0 | 0.00 | 0.00 | 0.00 | 75 | 1014.9 |
| 20260905042502 | 82 | 202 | 5.0 | 7.0 | 0.00 | 0.00 | 0.00 | 74 | 1015.0 |
| 20260905041957 | 82 | 156 | 5.0 | 6.0 | 0.00 | 0.00 | 0.00 | 74 | 1015.1 |
| 20260905041453 | 82 | 203 | 7.0 | 9.0 | 0.00 | 0.00 | 0.00 | 73 | 1015.1 |
| 20260905040948 | 82 | 176 | 8.0 | 9.0 | 0.00 | 0.00 | 0.00 | 73 | 1015.0 |
| 20260905040447 | 82 | 166 | 7.0 | 8.0 | 0.00 | 0.00 | 0.00 | 73 | 1014.8 |
| 20260905035947 | 83 | 167 | 5.0 | 6.0 | 0.00 | 0.00 | 0.00 | 72 | 1015.1 |
| 20260905035442 | 83 | 179 | 4.0 | 6.0 | 0.00 | 0.00 | 0.00 | 71 | 1015.1 |
| 20260905034939 | 83 | 175 | 6.0 | 8.0 | 0.00 | 0.00 | 0.00 | 71 | 1014.9 |
| 20260905034434 | 83 | 177 | 6.0 | 8.0 | 0.00 | 0.00 | 0.00 | 71 | 1015.1 |
| 20260905033933 | 83 | 142 | 7.0 | 9.0 | 0.00 | 0.00 | 0.00 | 71 | 1015.2 |
| 20260905033428 | 83 | 160 | 4.0 | 6.0 | 0.00 | 0.00 | 0.00 | 70 | 1015.0 |
| 20260905032928 | 83 | 187 | 4.0 | 6.0 | 0.00 | 0.00 | 0.00 | 70 | 1014.9 |
| 20260905032424 | 83 | 194 | 5.0 | 6.0 | 0.00 | 0.00 | 0.00 | 70 | 1015.0 |
| 20260905031918 | 83 | 202 | 5.0 | 6.0 | 0.00 | 0.00 | 0.00 | 70 | 1014.9 |
| 20260905031415 | 83 | 152 | 4.0 | 7.0 | 0.00 | 0.00 | 0.00 | 70 | 1015.0 |
| 20260905030910 | 83 | 172 | 6.0 | 8.0 | 0.00 | 0.00 | 0.00 | 71 | 1014.9 |
| 20260905030405 | 83 | 246 | 1.0 | 2.0 | 0.00 | 0.00 | 0.00 | 71 | 1014.8 |
| 20260905025904 | 83 | 143 | 4.0 | 5.0 | 0.00 | 0.00 | 0.00 | 71 | 1014.9 |
| 20260905025400 | 84 | 154 | 3.0 | 5.0 | 0.00 | 0.00 | 0.00 | 70 | 1014.8 |
| 20260905024856 | 84 | 185 | 6.0 | 7.0 | 0.00 | 0.00 | 0.00 | 70 | 1014.7 |
| 20260905024350 | 84 | 195 | 3.0 | 3.0 | 0.00 | 0.00 | 0.00 | 70 | 1014.5 |
| 20260905023846 | 84 | 185 | 5.0 | 8.0 | 0.00 | 0.00 | 0.00 | 70 | 1014.7 |
| 20260905023342 | 84 | 125 | 5.0 | 7.0 | 0.00 | 0.00 | 0.00 | 70 | 1014.3 |
| 20260905022840 | 84 | 131 | 8.0 | 10.0 | 0.00 | 0.00 | 0.00 | 69 | 1014.4 |
| 20260905022335 | 84 | 217 | 5.0 | 6.0 | 0.00 | 0.00 | 0.00 | 70 | 1014.4 |
| 20260905021830 | 84 | 182 | 6.0 | 8.0 | 0.00 | 0.00 | 0.00 | 70 | 1014.5 |
| 20260905021326 | 84 | 167 | 8.0 | 9.0 | 0.00 | 0.00 | 0.00 | 70 | 1014.2 |
| 20260905020826 | 84 | 247 | 3.0 | 3.0 | 0.00 | 0.00 | 0.00 | 70 | 1014.3 |
| 20260905020315 | 84 | 154 | 6.0 | 7.0 | 0.00 | 0.00 | 0.00 | 69 | 1014.2 |
| 20260905015813 | 85 | 187 | 8.0 | 9.0 | 0.00 | 0.00 | 0.00 | 69 | 1014.1 |
| 20260905015308 | 85 | 173 | 9.0 | 10.0 | 0.00 | 0.00 | 0.00 | 69 | 1014.2 |
| 20260905014807 | 85 | 200 | 8.0 | 10.0 | 0.00 | 0.00 | 0.00 | 68 | 1014.2 |
| 20260905014303 | 85 | 219 | 7.0 | 8.0 | 0.00 | 0.00 | 0.00 | 68 | 1014.0 |
| 20260905013753 | 85 | 151 | 6.0 | 7.0 | 0.00 | 0.00 | 0.00 | 67 | 1014.0 |
| 20260905013248 | 85 | 258 | 5.0 | 6.0 | 0.00 | 0.00 | 0.00 | 66 | 1013.9 |
| 20260905012743 | 86 | 168 | 5.0 | 6.0 | 0.00 | 0.00 | 0.00 | 65 | 1013.8 |
| 20260905012239 | 86 | 235 | 4.0 | 6.0 | 0.00 | 0.00 | 0.00 | 64 | 1014.0 |
| 20260905011736 | 86 | 240 | 2.0 | 2.0 | 0.00 | 0.00 | 0.00 | 64 | 1013.9 |
| 20260905011226 | 86 | 191 | 7.0 | 9.0 | 0.00 | 0.00 | 0.00 | 63 | 1013.8 |
| 20260905010725 | 86 | 160 | 6.0 | 7.0 | 0.00 | 0.00 | 0.00 | 63 | 1013.6 |
| 20260905010220 | 86 | 133 | 6.0 | 7.0 | 0.00 | 0.00 | 0.00 | 63 | 1013.8 |
| 20260905005717 | 86 | 163 | 5.0 | 7.0 | 0.00 | 0.00 | 0.00 | 63 | 1013.8 |
| 20260905005213 | 86 | 101 | 7.0 | 9.0 | 0.00 | 0.00 | 0.00 | 63 | 1013.8 |
| 20260905004707 | 86 | 184 | 4.0 | 6.0 | 0.00 | 0.00 | 0.00 | 64 | 1013.6 |
| 20260905004202 | 86 | 162 | 6.0 | 8.0 | 0.00 | 0.00 | 0.00 | 64 | 1013.6 |
| 20260905003657 | 87 | 138 | 3.0 | 6.0 | 0.00 | 0.00 | 0.00 | 64 | 1013.6 |
| 20260905003154 | 87 | 140 | 5.0 | 7.0 | 0.00 | 0.00 | 0.00 | 63 | 1013.3 |
| 20260905002649 | 87 | 177 | 8.0 | 8.0 | 0.00 | 0.00 | 0.00 | 62 | 1013.1 |
| 20260905002148 | 87 | 197 | 6.0 | 7.0 | 0.00 | 0.00 | 0.00 | 62 | 1013.5 |
| 20260905001643 | 87 | 131 | 7.0 | 8.0 | 0.00 | 0.00 | 0.00 | 64 | 1013.5 |
| 20260905001142 | 88 | 152 | 6.0 | 9.0 | 0.00 | 0.00 | 0.00 | 63 | 1013.3 |
| 20260905000638 | 89 | 136 | 9.0 | 11.0 | 0.00 | 0.00 | 0.00 | 62 | 1013.3 |
| 20260905000134 | 89 | 117 | 5.0 | 7.0 | 0.00 | 0.00 | 0.00 | 59 | 1013.2 |
| 20260904235633 | 89 | 126 | 9.0 | 15.0 | 0.00 | 0.00 | 0.00 | 59 | 1013.0 |
| 20260904235133 | 90 | 168 | 8.0 | 9.0 | 0.00 | 0.00 | 0.00 | 58 | 1012.9 |
| 20260904234628 | 91 | 152 | 9.0 | 13.0 | 0.00 | 0.00 | 0.00 | 57 | 1013.0 |
| 20260904234124 | 91 | 324 | 3.0 | 3.0 | 0.00 | 0.00 | 0.00 | 49 | 1012.9 |
| 20260904233619 | 91 | 137 | 5.0 | 9.0 | 0.00 | 0.00 | 0.00 | 47 | 1012.9 |
| 20260904233115 | 91 | 158 | 5.0 | 7.0 | 0.00 | 0.00 | 0.00 | 45 | 1012.7 |
| 20260904232612 | 91 | 166 | 5.0 | 7.0 | 0.00 | 0.00 | 0.00 | 45 | 1013.0 |
| 20260904232108 | 91 | 244 | 4.0 | 6.0 | 0.00 | 0.00 | 0.00 | 44 | 1012.9 |
| 20260904231603 | 91 | 124 | 7.0 | 8.0 | 0.00 | 0.00 | 0.00 | 42 | 1013.1 |
| 20260904231058 | 92 | 208 | 7.0 | 8.0 | 0.00 | 0.00 | 0.00 | 40 | 1013.1 |
| 20260904230557 | 92 | 180 | 7.0 | 8.0 | 0.00 | 0.00 | 0.00 | 41 | 1013.1 |
| 20260904230053 | 91 | 197 | 6.0 | 7.0 | 0.00 | 0.00 | 0.00 | 42 | 1013.1 |
| 20260904225550 | 91 | 210 | 6.0 | 8.0 | 0.00 | 0.00 | 0.00 | 41 | 1013.2 |
| 20260904225046 | 91 | 241 | 3.0 | 3.0 | 0.00 | 0.00 | 0.00 | 43 | 1013.5 |
| 20260904224540 | 91 | 228 | 5.0 | 8.0 | 0.00 | 0.00 | 0.00 | 44 | 1013.2 |
| 20260904224035 | 91 | 212 | 10.0 | 11.0 | 0.00 | 0.00 | 0.00 | 46 | 1013.1 |
| 20260904223533 | 91 | 210 | 6.0 | 7.0 | 0.00 | 0.00 | 0.00 | 46 | 1013.3 |
| 20260904223030 | 91 | 201 | 8.0 | 10.0 | 0.00 | 0.00 | 0.00 | 48 | 1013.5 |
| 20260904222525 | 92 | 207 | 8.0 | 10.0 | 0.00 | 0.00 | 0.00 | 48 | 1013.2 |
| 20260904222020 | 91 | 201 | 6.0 | 7.0 | 0.00 | 0.00 | 0.00 | 48 | 1013.5 |
| 20260904221514 | 92 | 216 | 8.0 | 9.0 | 0.00 | 0.00 | 0.00 | 48 | 1013.5 |
| 20260904221009 | 93 | 261 | 6.0 | 9.0 | 0.00 | 0.00 | 0.00 | 46 | 1013.4 |
| 20260904220509 | 93 | 172 | 4.0 | 6.0 | 0.00 | 0.00 | 0.00 | 46 | 1013.4 |